Location: Westerlo
(51.0830°N, 4.9170°E)
Time: 19:50:22
(UTC+02:00)

ISS - Visible Passes

Search period start: 16 April 2026 00:00
Search period end: 26 April 2026 00:00
Orbit: 415 x 424 km, 51.6° (Epoch: 15 April)

Date Brightness Start Highest point End Pass type
(mag) Time Alt. Az. Time Alt. Az. Time Alt. Az.
20 Apr -1.3 05:27:37 10° S 05:29:36 15° SE 05:31:35 10° ESE visible
22 Apr -2.4 05:28:26 11° SSW 05:31:11 30° SSE 05:34:11 10° E visible
23 Apr -2.0 04:42:45 18° S 04:43:53 21° SE 04:46:31 10° E visible
24 Apr -1.4 03:57:01 15° SE 03:57:01 15° SE 03:58:37 10° ESE visible
24 Apr -3.4 05:29:58 13° SW 05:32:53 55° SSE 05:36:13 10° E visible
25 Apr -3.1 04:44:10 27° SSW 04:45:29 41° SSE 04:48:42 10° E visible
